Location: Blumau
(48.7500°N, 15.4500°E)
Time: 12:49:50
(UTC+00:00)

Daily predictions for brighter satellites

Satellite Brightness Start Highest point End
(mag) Time Altitude Azimuth Time Altitude Azimuth Time Altitude Azimuth
MOS 1-B Rocket 4.4 18:54:23 10° NNE 19:02:01 78° ESE 19:08:27 10° S
ATLAS 5 CENTAUR R/B 2.4 18:57:19 10° NW 19:02:51 87° SW 19:09:24 10° SE
MOS 1 4.4 18:57:39 10° SSE 19:03:19 89° WSW 19:09:03 10° NNW
Meteor 1-25 Rocket 4.4 18:58:52 10° N 19:04:44 70° ENE 19:10:33 10° SSE
Cosmos 1386 Rocket 4.5 19:02:02 10° N 19:08:06 84° E 19:14:13 10° S
USA 306 3.6 19:04:29 10° WNW 19:08:39 51° NNE 19:12:50 10° E
Cosmos 1503 Rocket 4.1 19:04:27 10° S 19:09:30 58° ESE 19:14:37 10° NNE
Cosmos 1328 Rocket 4.5 19:09:11 10° SSE 19:13:03 30° E 19:16:56 10° NNE
Cosmos 1812 4.4 19:12:36 10° SE 19:15:10 17° E 19:17:46 10° NE
Cosmos 1844 3.8 19:10:36 10° SSW 19:16:20 89° WNW 19:22:02 10° NNE
Ariane Rocket 3.3 19:13:10 10° S 19:18:12 70° WSW 19:23:17 10° NNW
SOZ 4.3 19:15:08 10° WSW 19:18:14 83° SSE 19:20:26 10° ENE
ARIANE 5 R/B 3.9 19:15:03 10° ESE 19:18:40 26° ENE 19:22:18 10° N
Cosmos 1833 Rocket 3.3 19:14:39 10° NNW 19:20:05 45° NE 19:25:22 11° SE
Cosmos 1745 Rocket 4.2 19:15:57 10° NNW 19:22:10 77° W 19:28:16 10° S
Resurs 1-3 4.0 19:18:07 10° S 19:22:28 66° WSW 19:26:52 10° NNW
Cosmos 1666 4.4 19:20:23 10° NNE 19:23:05 19° ENE 19:25:37 11° ESE
Meteor 2-17 Rocket 4.5 19:18:01 10° N 19:24:12 74° E 19:30:20 10° SSE
Cosmos 1709 Rocket 4.0 19:18:28 10° N 19:24:36 70° ENE 19:30:41 10° SSE
NOSS 3-4 (A) 4.4 19:22:42 10° NW 19:29:15 49° NE 19:36:33 10° ESE
NOSS 3-4 (C) 4.4 19:22:49 10° NW 19:29:21 48° NE 19:36:38 10° ESE
Cosmos 1666 Rocket 3.5 19:25:41 10° N 19:30:07 82° E 19:34:28 10° S
BREEZE-M DEB (TANK) 4.3 19:26:10 10° W 19:30:22 53° SSW 19:38:54 10° ESE
USA 307 3.3 19:31:05 10° WNW 19:35:20 61° NNE 19:39:32 10° ESE
Cosmos 1437 3.1 19:33:32 12° SSE 19:35:54 35° E 19:38:33 10° NNE
CZ-2C R/B 3.9 19:32:44 10° NNE 19:37:05 48° E 19:41:29 10° S
NOSS 3-3 (A) 3.9 19:33:54 10° SSW 19:39:32 61° ESE 19:46:00 10° NE
NOSS 3-3 (C) 3.9 19:34:01 10° SSW 19:39:39 60° ESE 19:46:07 10° NE
Intercosmos 24 4.4 19:38:14 10° SSW 19:41:50 55° WNW 19:45:26 10° N
ATLAS 2AS CENTAUR R/B 3.8 19:35:28 10° NW 19:42:33 41° NNE 19:49:08 10° E
Cosmos 1354 Rocket 4.0 19:37:23 10° SSW 19:42:38 89° WNW 19:47:55 10° NNE
Sich 1 4.2 19:40:04 10° NNW 19:44:11 43° W 19:48:19 10° SSW
USA 245 2.6 19:43:37 22° SE 19:44:40 38° ENE 19:46:50 10° N
SJ 16-02 2.5 19:42:36 14° SSE 19:45:21 25° E 19:49:00 10° NE
OBJECT-B 3.7 19:45:06 10° SW 19:46:58 14° W 19:48:51 10° NW
SPOT 1/Viking Rocket 3.6 19:42:56 12° SSE 19:47:46 73° ENE 19:52:58 10° N
Meteor 1-26 Rocket 4.2 19:42:36 10° S 19:48:17 86° E 19:53:49 10° NNE
USA 308 3.1 19:44:41 10° WNW 19:48:59 69° NNE 19:52:37 14° ESE
Cosmos 2315 Rocket 4.0 19:43:44 10° S 19:50:06 80° E 19:56:31 10° N
USA 215 4.4 19:46:29 10° ENE 19:52:35 43° N 19:58:41 10° WNW
Cosmos 1500 3.1 19:49:31 10° N 19:53:17 76° E 19:56:08 16° SSE
Iridium 4 Rocket 4.3 19:51:14 15° SSE 19:55:41 43° E 20:01:14 10° NNE
Terra 2.8 19:54:08 16° ESE 19:57:16 32° ENE 20:01:29 10° N
BREEZE M DEB (TANK) 1.7 19:53:19 10° W 19:58:14 89° SW 19:59:41 21° ESE
Meteor 1-14 Rocket 4.3 19:53:16 10° NNW 19:59:11 90° WSW 20:04:21 13° S
Cosmos 2082 Rocket 2.7 19:54:28 10° NNW 19:59:55 47° NE 20:03:59 17° ESE
SPOT 3 Rocket 4.1 19:57:24 10° S 20:02:28 55° W 20:07:31 10° NNW
Cosmos 1151 Rocket 3.3 19:58:23 10° SSW 20:02:44 70° W 20:07:08 10° N
SPOT 5 3.4 19:59:19 18° SE 20:02:57 51° ENE 20:08:05 10° N
X-37B 2.3 20:01:31 10° WSW 20:03:53 19° SSW 20:04:43 18° S
Cosmos 158 Rocket 4.4 19:59:10 10° NNW 20:03:53 46° ENE 20:07:03 20° SE
CREW DRAGON DEMO-1 DEB 2.3 20:01:33 10° WNW 20:04:12 86° SSW 20:05:17 31° ESE
COSMOS 2406 3.2 20:00:41 10° NNW 20:06:23 90° W 20:10:34 19° SSE
Resurs 01 Rocket 2.8 20:03:01 10° SSW 20:07:12 40° W 20:11:24 10° NNW
Cosmos 2084 3.3 20:03:43 10° SW 20:07:52 90° ESE 20:12:09 10° NE
Cosmos 2228 Rocket 4.1 20:08:07 21° SE 20:10:02 30° E 20:13:56 10° NNE
Cosmos 1538 Rocket 4.0 20:09:45 10° NNW 20:15:09 89° ENE 20:18:46 21° SSE
Meteor 2-6 Rocket 4.1 20:12:09 13° S 20:17:01 69° E 20:22:32 10° NNE
Meteor 1-27 Rocket 4.5 20:16:22 21° SE 20:19:36 37° E 20:24:59 10° NNE
Cosmos 1271 Rocket 3.1 20:19:15 26° SSE 20:21:12 49° E 20:25:05 10° NNE
Spot 2 Rocket 3.6 20:22:06 18° S 20:25:50 71° WSW 20:30:54 10° NNW
Cosmos 2278 Rocket 2.1 20:20:12 10° SSW 20:25:50 75° ESE 20:31:30 10° NNE
BREEZE-M DEB (TANK) 0.9 20:25:33 10° W 20:27:35 87° SSW 20:27:56 58° ESE
Cosmos 1782 4.4 20:24:31 10° SW 20:28:13 35° WNW 20:31:54 10° N
USA 305 2.9 20:25:09 10° WNW 20:29:24 72° SSW 20:31:23 30° SE
Cosmos 1680 Rocket 4.1 20:26:29 10° NNW 20:31:39 46° ENE 20:34:33 24° ESE
Cosmos 1943 Rocket 3.6 20:32:27 18° ESE 20:33:03 18° E 20:36:45 10° ENE
ERS-1 Rocket 2.9 20:30:20 24° SSE 20:33:26 89° WSW 20:38:30 10° NNW
Cosmos 1515 Rocket 3.7 20:29:37 14° SSW 20:33:26 73° W 20:37:50 10° N
Gbstr 26 Del rocket 4.5 20:26:33 10° WNW 20:34:18 72° N 20:40:49 10° E
Cosmos 1869 Rocket 3.7 20:32:53 10° N 20:37:10 57° ENE 20:38:55 32° SE
CZ-4C R/B 3.4 20:31:07 10° NW 20:38:13 56° WSW 20:43:47 21° SSE
Meteor 1-11 Rocket 3.8 20:38:27 10° N 20:44:28 84° ENE 20:47:53 27° SSE
ATLAS 5 CENTAUR R/B 4.2 20:42:54 10° WNW 20:47:07 20° WSW 20:51:44 10° SSW
USA 306 3.1 20:44:30 10° WNW 20:48:41 55° SW 20:49:58 39° SSE
Cosmos 1818 4.5 20:44:49 10° NNW 20:50:04 43° NE 20:53:35 19° ESE
Cosmos 1812 3.9 20:47:18 12° SW 20:50:37 41° WNW 20:54:19 10° N
Cosmos 1340 Rocket 3.3 20:50:24 10° N 20:54:24 49° ENE 20:55:28 38° ESE
ARIANE 5 R/B 3.7 20:52:22 19° SSW 20:54:59 37° W 20:59:02 10° NNW
Cosmos 1707 Rocket 4.2 20:55:52 34° ESE 20:56:44 38° E 21:00:49 10° NNE
Cosmos 1666 3.8 20:55:20 10° NNW 20:58:47 36° W 21:00:28 23° SW
Meteor 2-12 Rocket 4.5 20:55:52 10° NNW 21:01:58 78° W 21:05:22 28° S
Cosmos 1833 Rocket 3.8 20:58:50 10° NW 21:03:54 35° WSW 21:07:04 20° SSW
Cosmos 2154 Rocket 4.0 20:59:52 10° N 21:06:14 81° W 21:09:42 29° S
SL-24 DEB 4.2 21:05:35 36° S 21:07:28 79° W 21:12:07 10° N
BREEZE-M R/B 2.0 21:05:23 10° W 21:07:48 70° N 21:07:49 70° N
Cosmos 923 Rocket 4.0 21:02:44 10° NNW 21:08:00 75° WSW 21:10:12 36° S
Cosmos 1898 Rocket 3.7 21:07:15 37° SSE 21:08:58 51° ESE 21:14:09 10° NNE
Cosmos 1536 2.8 21:05:23 10° NNW 21:09:27 76° W 21:10:33 46° S
Cosmos 1743 2.7 21:10:02 10° N 21:13:53 65° ENE 21:14:28 55° SE
USA 307 3.5 21:11:14 10° WNW 21:15:14 39° SW 21:15:37 38° SSW
H-2A R/B 3.7 21:12:18 10° N 21:16:30 69° WNW 21:18:18 32° SSW
Cosmos 962 Rocket 4.4 21:14:05 10° N 21:20:14 79° E 21:22:54 36° SSE
NOSS 3-4 (A) 4.2 21:13:36 10° NW 21:20:24 56° WSW 21:24:06 30° S
NOSS 3-4 (C) 4.2 21:13:42 10° NW 21:20:31 56° WSW 21:24:12 31° S
Cosmos 990 Rocket 3.9 21:20:01 34° SSW 21:22:22 80° ESE 21:27:40 10° NNE
SJ 16-02 2.6 21:19:34 10° SW 21:23:44 39° WNW 21:27:57 10° N
Nadezhda 1 Rocket 4.2 21:19:51 23° SSW 21:24:02 72° W 21:30:17 10° N
Cosmos 1975 3.9 21:20:40 10° N 21:24:14 30° ENE 21:24:44 29° E
Cosmos 2297 3.8 21:22:46 38° S 21:24:45 58° ESE 21:30:21 10° NE
Cosmos 1733 Rocket 3.1 21:22:42 10° N 21:27:01 63° ENE 21:27:49 51° SE
USA 308 3.9 21:24:55 10° WNW 21:28:43 32° SW 21:28:43 32° SW
Cosmos 1461 4.3 21:31:04 28° E 21:31:04 28° E 21:34:17 10° ENE
Cosmos 1900 4.4 21:30:20 46° S 21:31:31 58° ESE 21:36:29 10° NE
ATLAS 2AS CENTAUR R/B 2.8 21:26:43 10° NW 21:34:05 72° SW 21:37:04 37° SSE
USA 215 3.9 21:28:39 10° E 21:34:58 54° NNE 21:41:17 10° WNW
Terra 3.0 21:33:01 25° SW 21:34:58 35° W 21:39:21 10° NNW
Cosmos 1544 3.6 21:33:12 10° NNW 21:36:42 47° W 21:37:03 45° WSW
ERBS 2.8 21:39:55 10° NW 21:43:10 53° NNE 21:43:15 52° NE
Cosmos 2082 Rocket 3.3 21:38:54 10° NW 21:43:49 32° WSW 21:45:50 25° SW
Cosmos 2112 Rocket 4.4 21:41:24 10° NNW 21:46:37 55° WSW 21:48:11 40° SSW
Cosmos 2181 Rocket 4.0 21:44:37 41° SSE 21:46:48 69° E 21:52:55 10° NNE
Cosmos 44 3.6 21:45:27 10° NW 21:50:49 61° WSW 21:51:59 48° S
Cosmos 967 Rocket 4.3 21:49:30 31° SSW 21:52:40 79° SE 21:58:58 10° NE
Cosmos 2366 rocket 3.9 21:47:30 10° N 21:53:43 80° E 21:55:56 43° SSE
Spot 4 3.8 21:55:19 55° SSE 21:56:24 89° ENE 22:01:18 10° NNW
Cosmos 2084 Rocket 3.4 21:54:44 10° NW 21:58:59 69° SW 21:59:14 67° SSW
Cosmos 2341 Rocket 4.3 21:55:14 10° NNW 22:01:32 62° W 22:04:08 36° SSW
BREEZE-M DEB (TANK) 3.5 21:57:49 10° WNW 22:02:45 45° N 22:03:26 36° NE
Cosmos 1515 4.1 22:04:29 52° W 22:04:46 54° WNW 22:08:30 10° N
Cosmos 2278 Rocket 4.3 22:05:55 10° W 22:10:32 25° NW 22:15:08 10° N
Cosmos 1862 Rocket 3.6 22:10:39 60° SW 22:11:16 70° W 22:15:36 10° N
Cosmos 489 Rocket 4.4 22:05:04 10° NNW 22:11:18 75° WSW 22:13:17 45° S
Cosmos 1937 Rocket 3.6 22:09:32 39° SW 22:11:24 70° WNW 22:16:36 10° NNE
Cosmos 1703 Rocket 4.1 22:11:43 43° E 22:11:50 43° E 22:16:01 10° NNE
Cosmos 1782 Rocket 4.3 22:09:21 10° N 22:13:36 42° ENE 22:14:13 39° E
Cosmos 2218 Rocket 4.1 22:09:49 10° NNW 22:16:05 71° W 22:18:16 42° SSW
Cosmos 1943 Rocket 2.2 22:13:55 39° SW 22:16:07 80° WNW 22:21:46 10° NNE
Cosmos 2369 Rocket 2.2 22:17:10 52° SSE 22:18:14 62° ESE 22:23:49 10° NNE
Meteor 1-19 Rocket 4.2 22:19:24 44° SW 22:21:04 71° WNW 22:26:29 10° N
Gbstr 26 Del rocket 3.9 22:14:34 10° WNW 22:21:48 69° SSW 22:23:48 44° SE
Cosmos 1238 Rocket 4.4 22:17:33 10° NNW 22:23:28 47° W 22:25:13 36° SW
Cosmos 1048 Rocket 4.2 22:18:56 10° NNW 22:24:16 67° ENE 22:25:40 47° SE
COBE Rocket 4.0 22:24:30 56° SE 22:25:34 78° ENE 22:30:44 10° N
Gblst 52 Del rocket 4.3 22:20:08 10° WNW 22:27:02 77° SSW 22:29:37 37° SE
Cosmos 1607 4.3 22:26:50 44° SSE 22:28:04 50° ESE 22:34:18 10° NE
Okean 1 4.4 22:29:36 33° W 22:30:14 35° WNW 22:33:56 10° N
Okean 1-7 3.0 22:31:00 66° E 22:31:03 66° E 22:35:18 10° NNE
Thor Agena Rocket 3.9 22:27:19 10° NNE 22:32:24 48° E 22:33:11 44° SE
Cosmos 1818 4.0 22:28:31 10° NW 22:33:41 43° WSW 22:34:12 42° SW
Cosmos 2298 Rocket 4.2 22:35:33 51° SE 22:36:13 55° ESE 22:41:24 10° NNE
Cosmos 1656 Rocket 3.8 22:35:34 50° SE 22:36:17 54° ESE 22:41:41 10° NE
Nadezhda 3 Rocket 4.1 22:35:11 44° SSE 22:36:59 62° E 22:43:07 10° NNE
DNEPR-1 R/B 4.3 22:34:46 26° WSW 22:37:55 63° NW 22:42:45 10° NE
ALOS 2 2.7 22:41:06 57° WSW 22:41:19 58° W 22:45:41 10° NNW
Cosmos 2263 4.2 22:43:18 53° S 22:44:36 72° ESE 22:50:23 10° NNE
Cosmos 1356 Rocket 3.6 22:43:02 10° N 22:47:18 63° ENE 22:47:36 61° E
Meteor 2-4 Rocket 3.8 22:47:05 47° SSW 22:48:45 72° WNW 22:54:23 10° N
Meteor 1-13 Rocket 4.2 22:51:57 52° SSE 22:53:09 67° E 22:58:38 10° NNE
SL-27 R/B 3.2 22:51:19 10° NNW 22:53:51 49° N 22:53:51 49° N
BREEZE-M DEB (TANK) 3.9 22:45:24 10° WNW 22:57:53 56° SW 22:58:40 51° S
COSMOS 2455 4.5 22:53:04 10° NNW 22:58:24 31° NE 23:03:43 10° E
Cosmos 1975 4.4 22:57:19 10° NW 23:00:28 24° W 23:00:28 24° W
PSLV R/B 4.0 22:56:23 10° NNE 23:00:38 47° E 23:00:45 47° ESE
Resurs 1-4 Rocket 4.4 22:59:42 10° ENE 23:01:27 12° E 23:03:13 10° ESE
Sich 1 Rocket 3.7 22:58:54 10° N 23:03:29 67° ENE 23:04:02 60° ESE
RESURS DK-1 2.6 22:59:45 10° NW 23:03:31 59° W 23:03:31 59° W
Cosmos 2150 Rocket 3.9 23:04:29 58° SSW 23:05:35 88° ESE 23:10:56 10° NNE
Cosmos 2297 Rocket 4.3 23:02:53 10° N 23:07:25 24° NE 23:11:54 10° E
SeaSat 1 2.6 23:03:09 10° NE 23:08:02 56° ESE 23:08:32 53° SE
Cosmos 1833 4.2 23:02:27 10° NNW 23:08:11 67° WSW 23:09:23 53° S
Cosmos 1461 3.9 23:07:22 31° W 23:09:11 48° NW 23:13:39 10° NNE
Cosmos 2242 Rocket 4.1 23:09:01 44° W 23:09:36 47° WNW 23:13:56 10° N
Meteor 1-12 Rocket 4.3 23:05:25 10° NNW 23:11:17 72° W 23:12:43 51° SSW
Cosmos 2239 Rocket 4.5 23:05:21 10° NNW 23:11:38 75° W 23:13:34 47° SSW
Cosmos 1400 Rocket 4.3 23:12:44 10° N 23:16:23 30° ENE 23:17:25 26° E
ISS -2.5 23:18:16 39° NE 23:18:16 39° NE 23:20:35 10° ENE
USA 215 3.1 23:13:57 27° SE 23:17:50 76° SW 23:24:25 10° WNW
Cosmos 494 Rocket 4.0 23:14:22 10° NNW 23:19:30 60° WSW 23:20:07 55° SW
Cosmos 1300 Rocket 3.4 23:16:55 10° N 23:21:21 87° E 23:21:41 76° SSE
Okean 2 Rocket 3.0 23:19:03 10° N 23:23:28 73° E 23:23:56 65° SE
ATLAS 2AS CENTAUR R/B 4.4 23:19:38 10° WNW 23:23:40 16° WSW 23:24:29 16° WSW
Cosmos 2151 Rocket 3.9 23:19:44 10° N 23:24:14 59° ENE 23:25:02 50° ESE
Cosmos 1867 3.7 23:25:56 41° WSW 23:27:49 72° NW 23:33:19 10° NE
Cosmos 1125 Rocket 3.5 23:26:49 53° SW 23:28:03 77° WNW 23:33:18 10° NNE
Cosmos 1842 4.4 23:29:12 33° E 23:29:19 33° E 23:32:49 10° NNE
Cosmos 44 Rocket 3.3 23:24:47 10° NW 23:30:03 86° SW 23:31:24 51° SSE
Cosmos 1378 4.0 23:34:53 40° WNW 23:34:53 40° WNW 23:38:17 10° N
ATLAS CENTAUR R/B 1.2 23:38:30 70° NW 23:38:30 70° NW 23:42:15 10° NE
Cosmos 1934 Rocket 4.0 23:34:15 10° NNW 23:40:20 66° W 23:42:10 45° SSW
Cosmos 2344 4.3 23:31:15 10° NW 23:40:29 71° SW 23:51:08 17° SSE
USA 281 3.5 23:36:59 19° SE 23:41:51 65° ENE 23:48:21 10° NNW
YAOGAN 11 4.1 23:41:08 58° SE 23:41:53 73° ENE 23:46:10 10° N
Cosmos 1726 3.5 23:39:19 10° N 23:42:38 30° ENE 23:43:27 27° E
Meteor 1-22 Rocket 4.4 23:36:44 10° N 23:42:44 77° ENE 23:45:14 38° SSE
Cosmos 1339 Rocket 4.5 23:42:53 43° S 23:45:12 88° E 23:51:37 10° N
USA 81 4.0 23:43:52 10° N 23:49:12 85° W 23:50:37 50° S
Okean 3 4.4 23:50:46 33° W 23:51:19 35° WNW 23:55:13 10° N
